RH
28 27 26 27 27 28 28 30 31 30 32 33 36 37 38 38 35 34 39 53 63 71 74 74 73 70 68 67 66 63 61 62 58 45 52 55 63 72 81 98 85 88 90 91
31 30 28 30 28 28 29 33 34 31 35 37 42 39 40 37 33 32 36 45 55 71 77 80 80 83 83 77 74 81 85 84 76 65 64 60 74 69 77 82 89 91 97 99
34 31 32 34 32 31 30 33 34 37 35 38 44 43 46 43 36 34 34 42 45 64 72 82 84 86 89 86 90 85 89 96 86 80 76 71 79 77 80 89 98 97 97 98
33 33 34 34 34 36 37 34 34 38 43 46 43 47 43 45 43 38 38 39 45 51 67 78 85 86 88 90 96 91 91 95 95 88 82 79 85 92 92 95 99 93 99 98
31 33 35 36 37 40 41 40 40 40 44 47 47 53 43 47 46 41 40 41 42 45 52 67 77 85 91 94 98 98 99 94 98 94 91 85 87 93 99 98 92 96 97 97
32 35 37 37 39 41 45 47 49 52 50 59 51 59 44 50 47 44 42 40 40 39 39 44 57 69 90 93 96 97 96 98 96 97 99 92 89 92 95 94 96 96 98 98
37 37 37 38 41 44 48 51 59 60 71 61 54 61 55 53 51 46 45 42 39 39 37 38 45 47 53 76 87 92 93 97 99 98 97 98 96 95 94 95 91 95 95 96
44 48 39 38 42 45 49 53 63 59 65 63 55 59 57 59 55 53 50 47 42 40 39 38 38 38 39 48 56 70 74 78 90 94 97 97 98 99 98 98 97 97 97 98
42 44 40 41 42 46 47 53 54 56 60 67 57 55 67 63 62 58 57 51 47 43 41 41 42 41 39 38 39 43 51 55 60 62 67 68 70 78 85 89 96 97 97 96
41 44 42 43 44 46 48 51 59 65 69 69 61 61 72 73 68 64 61 58 55 49 46 44 44 46 45 43 41 40 40 46 46 45 45 44 43 48 48 49 54 55 58 59
42 43 47 45 46 49 51 57 58 65 68 74 69 60 64 69 65 67 65 64 62 60 55 50 49 47 48 50 49 45 43 42 40 39 38 37 39 38 38 37 36 36 37 36
45 47 49 47 46 48 51 54 57 67 73 70 69 59 62 68 71 69 67 68 69 66 64 63 56 52 50 52 53 54 52 49 46 44 42 40 39 38 37 36 36 35 35 36
49 48 54 54 51 53 52 55 57 62 67 78 83 67 65 69 72 73 71 74 74 73 70 70 69 65 58 54 54 56 56 55 53 52 51 50 48 45 42 40 37 36 35 35
56 53 56 61 58 56 57 59 61 65 76 65 66 58 63 68 74 75 80 81 79 78 77 77 74 70 66 63 63 60 61 59 57 57 55 52 48 45 42 39 37 35 34 32
55 53 56 52 52 57 56 53 59 62 61 66 56 63 58 64 68 71 78 82 85 83 85 82 79 77 72 69 68 67 66 65 63 61 57 52 48 45 43 41 39 38 37 36
58 58 57 56 58 59 57 56 56 60 62 62 63 64 65 67 68 69 74 77 85 91 91 86 81 76 74 74 72 70 70 68 64 60 57 54 50 47 44 41 38 36 35 34
64 65 62 62 63 65 62 54 58 60 62 63 71 66 66 69 74 74 75 75 77 80 79 80 81 80 79 76 74 74 71 67 62 58 54 49 44 41 38 35 32 31 30 29
68 69 69 69 71 77 56 59 61 63 64 69 66 66 67 68 70 74 75 76 77 80 81 82 82 81 80 79 78 75 71 66 61 57 52 47 43 39 35 33 31 30 28 26
73 81 87 88 82 64 56 64 68 69 63 68 70 71 72 72 71 75 78 80 82 83 83 84 83 82 81 80 77 73 69 65 60 55 50 45 41 38 36 34 32 30 27 26
68 78 88 95 96 85 65 68 70 73 73 69 72 76 78 76 78 76 79 82 84 86 86 87 86 87 85 82 78 74 69 64 60 54 47 43 40 37 35 32 30 29 28 27
78 82 90 88 95 78 74 76 81 86 78 74 76 79 79 81 82 82 84 86 88 89 89 89 91 89 86 82 78 73 68 61 53 48 44 41 38 36 35 32 30 27 26 24
70 87 89 89 93 85 77 84 91 87 83 82 80 82 81 84 85 87 89 90 91 93 96 93 91 88 84 80 75 68 59 52 47 43 41 39 38 36 32 29 27 26 25 23
76 75 88 86 84 84 88 93 95 92 89 87 86 86 86 87 89 91 94 97 97 96 94 92 89 85 81 74 64 57 52 48 45 43 40 37 33 31 30 28 26 24 23 23
83 87 86 93 79 85 90 95 98 97 97 96 95 94 93 94 96 97 97 97 97 95 92 89 84 78 69 61 57 52 49 47 42 37 33 31 29 27 27 27 27 26 27 28
84 88 91 94 92 93 95 98 98 98 97 97 97 97 97 97 97 97 97 97 95 92 87 82 74 64 59 54 51 49 45 37 32 30 29 28 27 27 28 30 32 34 37 40
82 83 89 81 84 95 95 97 98 97 97 97 97 97 97 97 96 97 96 94 90 86 79 69 62 55 52 49 41 34 31 29 28 27 28 29 30 32 35 38 41 49 52 57